Cloud_Cover
0 0 0 1 0 2 18 11 13 7 0 0 0 0 0 0 7 0 0 0 0 0 0 0 0 0 0 0 0 0 0 0 0 0 0 0 0 0 0 0 0 0 0 0 0
0 0 0 0 0 0 0 1 6 0 0 0 0 0 0 6 0 0 0 0 0 0 0 0 0 0 0 0 0 0 0 0 0 0 0 0 0 0 0 0 0 0 0 0 0
0 0 0 0 0 0 0 0 0 0 0 0 0 0 0 23 0 0 0 0 0 0 0 0 0 0 0 0 0 0 0 0 0 0 0 0 0 0 0 0 0 0 0 0 0
0 0 0 0 0 0 0 0 0 0 0 0 0 0 1 0 0 0 0 0 0 0 0 0 0 0 0 0 0 0 0 0 0 0 0 0 0 0 0 0 0 0 0 0 0
5 2 0 0 0 0 0 0 0 0 0 0 0 0 0 0 0 0 0 0 0 0 0 0 0 0 0 0 0 0 0 0 0 0 0 0 0 0 0 0 0 0 0 0 0
5 5 0 0 0 0 0 0 0 0 0 0 0 26 0 0 0 0 0 0 0 0 0 0 0 0 0 0 0 0 0 0 0 0 0 0 0 0 0 0 0 0 0 0 0
47 11 0 0 0 0 0 0 0 0 0 0 0 0 0 0 0 0 0 0 0 0 0 0 0 0 0 0 0 0 0 0 0 0 0 0 0 0 0 0 0 0 0 0 0
0 0 0 0 0 0 0 0 0 0 0 0 0 0 0 0 0 0 0 0 0 0 0 0 0 0 0 0 0 0 0 0 0 0 0 0 0 0 0 0 0 0 0 0 0
0 0 0 0 0 0 0 0 0 0 0 0 0 0 0 0 0 0 0 0 0 0 0 0 0 0 0 0 0 0 0 0 0 0 0 0 0 0 0 0 0 0 0 0 0
0 0 0 0 0 0 0 0 0 10 0 0 0 0 0 0 0 0 0 0 0 0 0 0 0 0 0 0 0 0 0 0 0 0 0 0 0 0 0 0 0 0 0 0 0
0 0 0 0 0 0 3 0 0 0 0 0 0 0 0 0 0 0 0 0 0 0 0 0 0 0 0 0 0 0 0 0 0 0 0 0 0 0 0 0 0 0 0 0 0
0 0 0 0 0 0 5 0 0 0 0 0 0 0 0 0 0 0 0 0 0 0 0 0 0 0 0 0 0 0 0 0 0 0 0 0 0 0 0 0 0 0 0 0 0
0 0 0 0 0 22 0 0 0 0 0 0 0 0 0 0 0 0 0 0 0 0 0 0 0 0 0 0 0 0 0 0 0 0 0 0 1 0 3 0 0 0 0 0 0
0 0 0 0 8 0 0 0 0 0 0 0 0 0 0 0 0 0 0 0 0 0 0 0 0 0 0 0 0 5 0 1 0 0 0 0 0 0 0 0 0 0 0 0 0
0 0 0 0 0 0 0 0 0 0 0 0 0 0 0 0 0 0 0 0 0 0 0 0 0 0 3 3 0 0 0 0 0 0 0 0 0 0 0 0 0 0 0 0 0
0 0 0 0 1 0 0 0 0 0 0 0 0 0 0 0 0 0 0 0 0 0 0 0 0 0 5 5 1 2 4 0 2 0 0 0 0 0 2 5 0 0 0 0 0
0 0 0 0 0 0 0 0 0 0 0 0 0 0 0 0 0 0 0 0 0 2 1 3 2 0 0 0 5 5 5 4 5 5 2 0 0 0 0 5 6 1 0 0 0
0 0 0 0 0 0 0 0 0 0 0 0 0 0 0 0 0 0 0 0 2 1 0 1 0 23 0 0 4 94 5 5 5 5 32 3 0 5 5 6 14 5 3 0 0
0 0 0 0 0 3 3 5 0 0 0 0 0 0 0 0 0 0 0 0 0 0 0 5 5 96 5 4 4 10 6 39 76 68 36 2 0 5 18 100 100 59 6 1 0
12 0 0 0 0 1 5 1 0 0 0 0 0 0 0 4 1 0 4 2 4 18 4 5 5 18 80 48 5 5 60 100 83 38 83 13 36 20 8 88 100 100 100 12 0
65 4 2 0 0 5 31 6 3 0 0 0 2 4 5 5 4 1 4 3 5 2 2 11 46 8 75 97 99 99 71 95 100 85 100 77 65 100 10 37 100 100 100 78 4
51 5 5 0 1 5 5 100 16 5 1 4 0 5 5 5 5 5 5 36 75 8 5 99 6 5 42 38 66 10 39 100 100 40 100 89 2 85 84 96 85 100 100 86 5
95 37 5 5 15 6 46 97 100 99 20 2 0 0 3 2 4 1 5 60 75 5 10 15 27 68 51 99 100 82 5 25 87 98 89 88 10 100 56 82 81 100 96 32 5
100 100 92 74 5 38 95 76 96 52 11 5 2 0 2 2 5 5 9 5 4 0 1 4 5 96 58 54 100 81 98 100 100 42 0 52 3 79 100 100 100 100 79 76 50
100 21 5 5 5 30 83 88 5 0 0 0 3 5 5 5 6 89 24 3 1 0 0 4 5 12 5 23 83 100 99 75 100 100 100 6 94 29 100 100 100 100 90 83 100
5 5 5 5 4 5 5 5 4 5 5 5 5 5 9 34 31 5 0 0 0 0 5 5 27 31 5 5 19 92 6 89 100 100 100 100 72 3 100 100 99 81 30 5 5
47 5 5 5 2 5 4 4 5 5 30 5 5 30 100 66 5 0 0 0 0 1 1 3 5 17 4 4 10 15 61 32 100 100 100 100 81 70 100 100 98 84 88 62 34